Time,TemperatureF,DewpointF,PressureIn,WindDirection,WindDirectionDegrees,WindSpeedMPH,WindSpeedGustMPH,Humidity,HourlyPrecipIn,Conditions,Clouds,dailyrainin,SoftwareType,DateUTC
2015-01-27 00:04:00,16.3,13.6,29.96,NE,46,3.0,3.0,89,0.00,,OVC015,0.00,VWS V14.01,2015-01-27 05:04:00,
2015-01-27 00:09:00,16.4,13.7,29.96,NE,46,1.0,3.0,89,0.00,,OVC015,0.00,VWS V14.01,2015-01-27 05:09:00,
2015-01-27 00:14:00,16.4,13.7,29.96,NE,46,2.0,3.0,89,0.00,,OVC015,0.00,VWS V14.01,2015-01-27 05:14:00,
2015-01-27 00:19:00,16.4,13.7,29.96,NE,46,1.0,2.0,89,0.00,,OVC015,0.00,VWS V14.01,2015-01-27 05:19:00,
2015-01-27 00:25:00,16.4,13.7,29.96,NE,46,3.0,4.0,89,0.00,,OVC015,0.00,VWS V14.01,2015-01-27 05:25:00,
2015-01-27 00:30:00,16.4,13.7,29.95,NE,46,2.0,3.0,89,0.00,,OVC015,0.00,VWS V14.01,2015-01-27 05:30:00,
2015-01-27 00:35:00,16.4,13.7,29.95,NE,46,1.0,3.0,89,0.00,,OVC015,0.00,VWS V14.01,2015-01-27 05:35:00,
2015-01-27 00:40:00,16.4,13.7,29.95,NE,46,2.0,2.0,89,0.00,,OVC015,0.00,VWS V14.01,2015-01-27 05:40:00,
2015-01-27 00:45:00,16.4,13.7,29.95,NE,46,3.0,4.0,89,0.00,,OVC015,0.00,VWS V14.01,2015-01-27 05:45:00,
2015-01-27 00:50:00,16.4,13.7,29.95,NE,46,0.0,4.0,89,0.00,,,0.00,VWS V14.01,2015-01-27 05:50:00,
2015-01-27 00:55:00,16.4,13.7,29.95,NE,46,2.0,3.0,89,0.00,,,0.00,VWS V14.01,2015-01-27 05:55:00,
2015-01-27 01:00:00,16.4,13.7,29.94,NE,52,3.0,3.0,89,0.00,,,0.00,VWS V14.01,2015-01-27 06:00:00,
2015-01-27 01:05:00,16.3,13.6,29.94,NE,51,3.0,4.0,89,0.00,,,0.00,VWS V14.01,2015-01-27 06:05:00,
2015-01-27 01:10:00,16.3,13.6,29.94,NE,53,3.0,3.0,89,0.00,,,0.00,VWS V14.01,2015-01-27 06:10:00,
2015-01-27 01:15:00,16.4,13.7,29.94,NE,53,3.0,4.0,89,0.00,,,0.00,VWS V14.01,2015-01-27 06:15:00,
2015-01-27 01:21:00,16.3,13.6,29.94,NE,53,1.0,4.0,89,0.00,,,0.00,VWS V14.01,2015-01-27 06:21:00,
2015-01-27 01:26:00,16.3,13.6,29.94,ENE,57,1.0,3.0,89,0.00,,,0.00,VWS V14.01,2015-01-27 06:26:00,
2015-01-27 01:31:00,16.3,13.6,29.94,ENE,57,3.0,3.0,89,0.00,,,0.00,VWS V14.01,2015-01-27 06:31:00,
2015-01-27 01:36:00,16.2,13.5,29.94,ENE,57,3.0,3.0,89,0.00,,,0.00,VWS V14.01,2015-01-27 06:36:00,
2015-01-27 01:41:00,16.2,13.5,29.93,ENE,57,1.0,3.0,89,0.00,,,0.00,VWS V14.01,2015-01-27 06:41:00,
2015-01-27 01:46:00,16.2,13.5,29.94,ENE,57,1.0,3.0,89,0.00,,,0.00,VWS V14.01,2015-01-27 06:46:00,
2015-01-27 01:51:00,16.2,13.5,29.94,ENE,57,2.0,4.0,89,0.00,,,0.00,VWS V14.01,2015-01-27 06:51:00,
2015-01-27 01:56:00,16.2,13.5,29.94,ENE,58,3.0,3.0,89,0.00,,,0.00,VWS V14.01,2015-01-27 06:56:00,
2015-01-27 02:01:00,16.2,13.5,29.94,ENE,58,1.0,1.0,89,0.00,,,0.00,VWS V14.01,2015-01-27 07:01:00,
2015-01-27 02:06:00,16.1,13.4,29.94,ENE,57,1.0,2.0,89,0.00,,,0.00,VWS V14.01,2015-01-27 07:06:00,
2015-01-27 02:11:00,16.1,13.4,29.94,ENE,58,2.0,3.0,89,0.00,,,0.00,VWS V14.01,2015-01-27 07:11:00,
2015-01-27 02:17:00,16.1,13.4,29.94,ENE,58,2.0,2.0,89,0.00,,,0.00,VWS V14.01,2015-01-27 07:17:00,
2015-01-27 02:22:00,16.1,13.4,29.94,ENE,58,2.0,3.0,89,0.00,,,0.00,VWS V14.01,2015-01-27 07:22:00,
2015-01-27 02:27:00,16.2,13.5,29.94,ENE,59,4.0,5.0,89,0.00,,,0.00,VWS V14.01,2015-01-27 07:27:00,
2015-01-27 02:32:00,16.1,13.4,29.94,ENE,60,4.0,4.0,89,0.00,,,0.00,VWS V14.01,2015-01-27 07:32:00,
2015-01-27 02:37:00,16.1,13.4,29.94,ENE,60,3.0,4.0,89,0.00,,,0.00,VWS V14.01,2015-01-27 07:37:00,
2015-01-27 02:42:00,16.1,13.4,29.94,ENE,60,2.0,3.0,89,0.00,,,0.00,VWS V14.01,2015-01-27 07:42:00,
2015-01-27 02:47:00,16.2,13.5,29.94,ENE,59,3.0,4.0,89,0.00,,,0.00,VWS V14.01,2015-01-27 07:47:00,
2015-01-27 02:52:00,16.2,13.5,29.94,ENE,59,2.0,4.0,89,0.00,,,0.00,VWS V14.01,2015-01-27 07:52:00,
2015-01-27 02:57:00,16.1,13.4,29.95,ENE,60,2.0,4.0,89,0.00,,,0.00,VWS V14.01,2015-01-27 07:57:00,
2015-01-27 03:02:00,16.1,13.4,29.95,ENE,74,1.0,2.0,89,0.00,,OVC021,0.00,VWS V14.01,2015-01-27 08:02:00,
2015-01-27 03:07:00,16.2,13.5,29.95,ENE,74,3.0,3.0,89,0.00,,OVC021,0.00,VWS V14.01,2015-01-27 08:07:00,
2015-01-27 03:12:00,16.1,13.4,29.95,ENE,74,3.0,4.0,89,0.00,,OVC021,0.00,VWS V14.01,2015-01-27 08:12:00,
2015-01-27 03:18:00,16.1,13.4,29.95,ENE,77,2.0,5.0,89,0.00,,OVC021,0.00,VWS V14.01,2015-01-27 08:18:00,
2015-01-27 03:23:00,16.1,13.4,29.95,ENE,78,3.0,4.0,89,0.00,,OVC021,0.00,VWS V14.01,2015-01-27 08:23:00,
2015-01-27 03:28:00,16.0,13.3,29.95,ENE,78,4.0,4.0,89,0.00,,OVC021,0.00,VWS V14.01,2015-01-27 08:28:00,
2015-01-27 03:33:00,16.0,13.3,29.94,ENE,78,3.0,4.0,89,0.00,,OVC021,0.00,VWS V14.01,2015-01-27 08:33:00,
2015-01-27 03:38:00,16.0,13.3,29.94,ENE,77,4.0,5.0,89,0.00,,OVC021,0.00,VWS V14.01,2015-01-27 08:38:00,
2015-01-27 03:43:00,15.9,13.2,29.94,ENE,73,3.0,5.0,89,0.00,,OVC021,0.00,VWS V14.01,2015-01-27 08:43:00,
2015-01-27 03:48:00,15.8,13.1,29.94,ENE,73,3.0,4.0,89,0.00,,OVC020,0.00,VWS V14.01,2015-01-27 08:48:00,
2015-01-27 03:53:00,15.8,13.1,29.94,ENE,73,4.0,4.0,89,0.00,,OVC020,0.00,VWS V14.01,2015-01-27 08:53:00,
2015-01-27 03:58:00,15.7,13.3,29.94,ENE,73,3.0,4.0,90,0.00,,OVC020,0.00,VWS V14.01,2015-01-27 08:58:00,
2015-01-27 04:03:00,15.6,13.2,29.94,ENE,73,1.0,2.0,90,0.00,,OVC020,0.00,VWS V14.01,2015-01-27 09:03:00,
2015-01-27 04:08:00,15.5,13.1,29.94,ENE,73,1.0,3.0,90,0.00,,OVC020,0.00,VWS V14.01,2015-01-27 09:08:00,
2015-01-27 04:13:00,15.5,13.1,29.95,ENE,73,1.0,4.0,90,0.00,,OVC020,0.00,VWS V14.01,2015-01-27 09:13:00,
2015-01-27 04:19:00,15.4,13.0,29.95,ENE,73,2.0,4.0,90,0.00,,OVC020,0.00,VWS V14.01,2015-01-27 09:19:00,
2015-01-27 04:24:00,15.4,13.0,29.94,ENE,73,3.0,4.0,90,0.00,,OVC020,0.00,VWS V14.01,2015-01-27 09:24:00,
2015-01-27 04:29:00,15.3,12.9,29.95,ENE,73,1.0,3.0,90,0.00,,OVC020,0.00,VWS V14.01,2015-01-27 09:29:00,
2015-01-27 04:34:00,15.3,12.9,29.94,ENE,73,3.0,3.0,90,0.00,,OVC020,0.00,VWS V14.01,2015-01-27 09:34:00,
2015-01-27 04:39:00,15.3,12.9,29.95,ENE,73,2.0,3.0,90,0.00,,OVC020,0.00,VWS V14.01,2015-01-27 09:39:00,
2015-01-27 04:44:00,15.3,12.9,29.95,ENE,73,2.0,2.0,90,0.00,,OVC020,0.00,VWS V14.01,2015-01-27 09:44:00,
2015-01-27 04:49:00,15.3,12.9,29.95,ENE,73,3.0,3.0,90,0.00,,OVC034,0.00,VWS V14.01,2015-01-27 09:49:00,
2015-01-27 04:54:00,15.3,12.9,29.95,ENE,73,1.0,4.0,90,0.00,,OVC034,0.00,VWS V14.01,2015-01-27 09:54:00,
2015-01-27 04:59:00,15.3,12.9,29.95,ENE,73,0.0,2.0,90,0.00,,OVC034,0.00,VWS V14.01,2015-01-27 09:59:00,
2015-01-27 05:04:00,15.2,12.8,29.95,ENE,73,1.0,2.0,90,0.00,,OVC034,0.00,VWS V14.01,2015-01-27 10:04:00,
2015-01-27 05:09:00,15.1,12.7,29.96,ENE,73,0.0,3.0,90,0.00,,OVC034,0.00,VWS V14.01,2015-01-27 10:09:00,
2015-01-27 05:15:00,15.0,12.6,29.96,ENE,73,0.0,2.0,90,0.00,,OVC034,0.00,VWS V14.01,2015-01-27 10:15:00,
2015-01-27 05:20:00,14.9,12.5,29.96,ENE,73,0.0,2.0,90,0.00,,OVC034,0.00,VWS V14.01,2015-01-27 10:20:00,
2015-01-27 05:25:00,14.8,12.4,29.96,ENE,73,1.0,2.0,90,0.00,,OVC034,0.00,VWS V14.01,2015-01-27 10:25:00,
2015-01-27 05:30:00,14.7,12.3,29.96,ENE,73,0.0,2.0,90,0.00,,OVC034,0.00,VWS V14.01,2015-01-27 10:30:00,
2015-01-27 05:35:00,14.6,12.2,29.97,ENE,73,1.0,2.0,90,0.00,,OVC034,0.00,VWS V14.01,2015-01-27 10:35:00,
2015-01-27 05:40:00,14.5,12.1,29.97,ENE,73,0.0,0.0,90,0.00,,OVC034,0.00,VWS V14.01,2015-01-27 10:40:00,
2015-01-27 05:45:00,14.3,11.9,29.97,ENE,73,0.0,2.0,90,0.00,,,0.00,VWS V14.01,2015-01-27 10:45:00,
2015-01-27 05:50:00,14.3,12.2,29.97,ENE,73,0.0,1.0,91,0.00,,,0.00,VWS V14.01,2015-01-27 10:50:00,
2015-01-27 05:55:00,14.2,12.1,29.97,ENE,73,0.0,2.0,91,0.00,,,0.00,VWS V14.01,2015-01-27 10:55:00,
2015-01-27 06:00:00,14.0,11.9,29.97,ENE,73,1.0,2.0,91,0.00,,,0.00,VWS V14.01,2015-01-27 11:00:00,
2015-01-27 06:06:00,13.8,11.7,29.98,ENE,73,0.0,2.0,91,0.00,,,0.00,VWS V14.01,2015-01-27 11:06:00,
2015-01-27 06:11:00,13.7,11.6,29.98,ENE,73,2.0,2.0,91,0.00,,,0.00,VWS V14.01,2015-01-27 11:11:00,
2015-01-27 06:16:00,13.7,11.6,29.99,ENE,73,3.0,3.0,91,0.00,,,0.00,VWS V14.01,2015-01-27 11:16:00,
2015-01-27 06:21:00,13.6,11.5,29.99,ENE,73,1.0,3.0,91,0.00,,,0.00,VWS V14.01,2015-01-27 11:21:00,
2015-01-27 06:26:00,13.6,11.5,30.00,ENE,73,1.0,3.0,91,0.00,,,0.00,VWS V14.01,2015-01-27 11:26:00,
2015-01-27 06:31:00,13.4,11.3,30.00,ENE,73,2.0,3.0,91,0.00,,,0.00,VWS V14.01,2015-01-27 11:31:00,
2015-01-27 06:36:00,13.3,11.2,30.00,ENE,73,1.0,3.0,91,0.00,,,0.00,VWS V14.01,2015-01-27 11:36:00,
2015-01-27 06:41:00,13.2,11.1,30.00,ENE,73,1.0,2.0,91,0.00,,,0.00,VWS V14.01,2015-01-27 11:41:00,
2015-01-27 06:46:00,13.2,11.1,30.01,ENE,73,2.0,2.0,91,0.00,,,0.00,VWS V14.01,2015-01-27 11:46:00,
2015-01-27 06:51:00,13.1,11.0,30.01,ENE,73,1.0,1.0,91,0.00,,,0.00,VWS V14.01,2015-01-27 11:51:00,
2015-01-27 06:56:00,13.0,10.9,30.01,ENE,73,0.0,1.0,91,0.00,,,0.00,VWS V14.01,2015-01-27 11:56:00,
2015-01-27 07:01:00,13.0,10.9,30.01,ENE,73,2.0,3.0,91,0.00,,,0.00,VWS V14.01,2015-01-27 12:01:00,
2015-01-27 07:07:00,12.9,10.8,30.01,ENE,73,0.0,2.0,91,0.00,,,0.00,VWS V14.01,2015-01-27 12:07:00,
2015-01-27 07:12:00,12.8,10.7,30.02,ENE,73,0.0,2.0,91,0.00,,,0.00,VWS V14.01,2015-01-27 12:12:00,
2015-01-27 07:17:00,12.8,10.7,30.02,ENE,73,1.0,1.0,91,0.00,,,0.00,VWS V14.01,2015-01-27 12:17:00,
2015-01-27 07:22:00,12.8,10.7,30.02,ENE,73,3.0,3.0,91,0.00,,,0.00,VWS V14.01,2015-01-27 12:22:00,
2015-01-27 07:27:00,12.8,10.7,30.02,ENE,73,0.0,1.0,91,0.00,,,0.00,VWS V14.01,2015-01-27 12:27:00,
2015-01-27 07:32:00,12.8,10.7,30.02,ENE,73,2.0,2.0,91,0.00,,,0.00,VWS V14.01,2015-01-27 12:32:00,
2015-01-27 07:37:00,12.8,10.7,30.02,ENE,73,4.0,4.0,91,0.00,,,0.00,VWS V14.01,2015-01-27 12:37:00,
2015-01-27 07:42:00,12.8,10.9,30.02,ENE,73,3.0,4.0,92,0.00,,,0.00,VWS V14.01,2015-01-27 12:42:00,
2015-01-27 07:47:00,12.9,10.8,30.03,ENE,73,0.0,3.0,91,0.00,,OVC041,0.00,VWS V14.01,2015-01-27 12:47:00,
2015-01-27 07:52:00,12.9,10.8,30.03,ENE,73,2.0,2.0,91,0.00,,OVC041,0.00,VWS V14.01,2015-01-27 12:52:00,
2015-01-27 07:58:00,12.9,10.8,30.03,ENE,73,2.0,4.0,91,0.00,,OVC041,0.00,VWS V14.01,2015-01-27 12:58:00,
2015-01-27 08:03:00,13.0,10.9,30.04,ENE,73,3.0,3.0,91,0.00,,OVC041,0.00,VWS V14.01,2015-01-27 13:03:00,
2015-01-27 08:08:00,13.1,11.0,30.04,ENE,73,1.0,3.0,91,0.00,,OVC041,0.00,VWS V14.01,2015-01-27 13:08:00,
2015-01-27 08:13:00,13.3,11.2,30.05,ENE,73,2.0,3.0,91,0.00,,OVC041,0.00,VWS V14.01,2015-01-27 13:13:00,